FW5175 Weather Reports


time (UTC)temp
F
wind
direction
speed
knots
gust
knots
rain 1hr
in
rain 24hr
in
rain mn
in
humidity
%
barometer
mb
20260504201507 69 228 5.2 12.2 0.00 0.00 0.00 31 1008.5
20260504200006 69 243 3.5 13.9 0.00 0.00 0.00 32 1008.7
20260504194502 68 207 3.5 9.6 0.00 0.00 0.00 36 1009.1
20260504191557 67 191 4.3 13.9 0.00 0.00 0.00 36 1009.5
20260504190107 66 217 5.2 14.8 0.00 0.00 0.00 38 1009.7
20260504184553 66 206 4.3 13.9 0.00 0.00 0.00 39 1009.9
20260504181558 64 208 4.3 16.5 0.00 0.00 0.00 43 1010.0
20260504180137 65 223 4.3 13.9 0.00 0.00 0.00 42 1010.1
20260504174553 65 283 5.2 13.0 0.00 0.00 0.00 44 1010.2
20260504171549 64 197 4.3 12.2 0.00 0.00 0.00 46 1010.4
20260504120104 43 216 3.5 14.8 0.00 0.00 0.00 65 1013.0
20260504081534 41 193 2.6 7.8 0.00 0.00 0.00 67 1013.5
20260504050024 43 177 2.6 7.8 0.00 0.00 0.00 60 1014.5
20260504044533 44 226 2.6 8.7 0.00 0.00 0.00 60 1014.5
20260504041517 44 196 1.7 6.1 0.00 0.00 0.00 59 1014.3
20260504040020 44 180 2.6 7.8 0.00 0.00 0.00 58 1014.5
20260504034517 44 197 2.6 6.1 0.00 0.00 0.00 58 1014.4
20260504031518 45 195 1.7 6.1 0.00 0.00 0.00 58 1014.5
20260504030014 45 241 2.6 7.0 0.00 0.00 0.00 57 1014.6
20260504024514 45 192 1.7 7.0 0.00 0.00 0.00 56 1014.7
20260504021518 46 239 2.6 6.1 0.00 0.00 0.00 54 1014.9
20260504020015 46 230 1.7 6.1 0.00 0.00 0.00 54 1014.9
20260504014514 47 195 1.7 7.0 0.00 0.00 0.00 53 1014.6
20260504011513 48 215 1.7 10.4 0.00 0.00 0.00 51 1014.4
20260504010013 48 209 2.6 8.7 0.00 0.00 0.00 51 1014.6
20260504004518 48 195 2.6 7.8 0.00 0.00 0.00 50 1014.3
20260504001512 49 197 2.6 9.6 0.00 0.00 0.00 49 1014.3
20260504000012 49 246 2.6 10.4 0.00 0.00 0.00 49 1014.2
20260503234517 49 277 3.5 12.2 0.00 0.00 0.00 47 1014.1
20260503231520 50 239 2.6 8.7 0.00 0.00 0.00 47 1014.1
20260503230017 50 259 6.1 15.6 0.00 0.00 0.00 46 1014.0
20260503224515 50 246 7.8 16.5 0.00 0.00 0.00 46 1014.1
20260503221512 50 242 5.2 10.4 0.00 0.00 0.00 46 1014.0
20260503220012 50 223 5.2 12.2 0.00 0.00 0.00 46 1014.2
20260503214532 50 202 4.3 14.8 0.00 0.00 0.00 46 1014.1
20260503211512 51 245 5.2 13.0 0.00 0.00 0.00 45 1014.1
20260503210010 51 285 3.5 15.6 0.00 0.00 0.00 46 1014.1
20260503204508 51 228 5.2 13.9 0.00 0.00 0.00 47 1014.1